Chicago Midway, IL

7:23 PM CDT on August 23, 2017 (GMT -0500)
Chicago-Midway

Weather History for KMDW - November, 2012

Change the Weather History Date:

Wednesday, November 14, 2012

  Actual Average Record
Temperature  
Mean Temperature 38 °F 42 °F  
Max Temperature 45 °F 50 °F 78 °F (1971)
Min Temperature 31 °F 35 °F 12 °F (1940)
Degree Days  
Heating Degree Days 27 23  
Month to date heating degree days 303 275  
Since 1 July heating degree days 745 706  
Cooling Degree Days 0 0  
Month to date cooling degree days 0 0  
Year to date cooling degree days 1473 1045  
Moisture  
Dew Point 23 °F    
Average Humidity 55    
Maximum Humidity 67    
Minimum Humidity 29    
Precipitation  
Precipitation 0.00 in 0.12 in 1.60 in (1989)
Month to date precipitation 0.79 1.61  
Year to date precipitation 24.57 34.71  
Sea Level Pressure  
Sea Level Pressure 30.49 in    
Wind  
Wind Speed 6 mph (South)    
Max Wind Speed 14 mph    
Max Gust Speed 24 mph    
Visibility 10 miles    
Events      
T = Trace of Precipitation, MM = Missing Value Source: NWS Daily Summary

Daily Weather History Graph

Daily Weather History Graph

Search for Another Location

Airport or City:

Trip Planner

Search our weather history database for the weather conditions in past years. The results will help you decide how hot, cold, wet, or windy it might be!

Date:

Astronomy

Nov. 14, 2012 Rise Set
Actual Time 6:39 AM CST 4:30 PM CST
Civil Twilight 6:09 AM CST 5:00 PM CST
Nautical Twilight 5:36 AM CST 5:34 PM CST
Astronomical Twilight 5:03 AM CST 6:07 PM CST
Moon 7:29 AM CST (11/14) 5:18 PM CST (11/14)
Length of Visible Light 10h 50m
Length of Day
9h 51m
New Moon, 1% of the Moon is Illuminated
Nov 14
New Moon
Nov 20
First Quarter
Nov 28
Full
Dec 6
Last Quarter
Dec 13
New

Hourly Weather History & Observations

Time (CST) Temp. Windchill Dew Point Humidity Pressure Visibility Wind Dir Wind Speed Gust Speed Precip Events Conditions
12:51 AM 32.0 °F 28.7 °F 21.9 °F 66% 30.53 in 10.0 mi South 3.5 mph - N/A   Mostly Cloudy
1:51 AM 32.0 °F 27.5 °F 21.9 °F 66% 30.54 in 10.0 mi South 4.6 mph - N/A   Overcast
2:51 AM 32.0 °F 28.7 °F 21.9 °F 66% 30.54 in 10.0 mi South 3.5 mph - N/A   Mostly Cloudy
3:51 AM 32.0 °F 28.7 °F 21.9 °F 66% 30.54 in 10.0 mi South 3.5 mph - N/A   Mostly Cloudy
4:51 AM 32.0 °F 27.5 °F 21.9 °F 66% 30.54 in 10.0 mi SSE 4.6 mph - N/A   Overcast
5:51 AM 32.0 °F 27.5 °F 21.9 °F 66% 30.55 in 10.0 mi South 4.6 mph - N/A   Mostly Cloudy
6:51 AM 32.0 °F 27.5 °F 21.9 °F 66% 30.55 in 10.0 mi South 4.6 mph - N/A   Mostly Cloudy
7:51 AM 33.1 °F 26.9 °F 21.9 °F 64% 30.56 in 10.0 mi SSE 6.9 mph - N/A   Mostly Cloudy
8:51 AM 37.0 °F 29.8 °F 21.9 °F 54% 30.56 in 10.0 mi South 10.4 mph - N/A   Mostly Cloudy
9:51 AM 39.9 °F 33.9 °F 23.0 °F 51% 30.55 in 10.0 mi South 9.2 mph 18.4 mph N/A   Mostly Cloudy
10:51 AM 41.0 °F 35.8 °F 23.0 °F 49% 30.54 in 10.0 mi South 8.1 mph - N/A   Mostly Cloudy
11:51 AM 42.1 °F 37.1 °F 24.1 °F 49% 30.51 in 10.0 mi South 8.1 mph - N/A   Mostly Cloudy
12:51 PM 43.0 °F 38.8 °F 23.0 °F 45% 30.48 in 10.0 mi SSW 6.9 mph - N/A   Mostly Cloudy
1:51 PM 44.1 °F 39.0 °F 24.1 °F 45% 30.47 in 10.0 mi South 9.2 mph - N/A   Mostly Cloudy
2:51 PM 45.0 °F 41.8 °F 23.0 °F 42% 30.46 in 10.0 mi SSW 5.8 mph - N/A   Scattered Clouds
3:51 PM 44.6 °F 40.2 °F 21.2 °F 39% 30.42 in 10.0 mi South 8.1 mph - N/A   Partly Cloudy
4:51 PM 43.0 °F 40.3 °F 23.0 °F 45% 30.45 in 10.0 mi South 4.6 mph - N/A   Partly Cloudy
5:51 PM 41.0 °F 38.0 °F 23.0 °F 49% 30.45 in 10.0 mi South 4.6 mph - N/A   Clear
6:51 PM 39.9 °F 35.8 °F 24.1 °F 53% 30.45 in 10.0 mi SSE 5.8 mph - N/A   Clear
7:51 PM 39.0 °F 35.7 °F 24.1 °F 55% 30.45 in 10.0 mi SSE 4.6 mph - N/A   Clear
8:51 PM 37.0 °F 32.4 °F 25.0 °F 62% 30.43 in 10.0 mi SSE 5.8 mph - N/A   Clear
9:51 PM 37.0 °F 34.5 °F 25.0 °F 62% 30.43 in 10.0 mi South 3.5 mph - N/A   Clear
10:51 PM 35.1 °F 32.2 °F 25.0 °F 67% 30.42 in 10.0 mi Variable 3.5 mph - N/A   Partly Cloudy
11:51 PM 35.6 °F - 24.8 °F 65% 30.39 in 9.0 mi Calm Calm - N/A   Scattered Clouds